Regional Weather Roundup
Issued by NWS

Home | Current Version | Previous Version | Graphics & Text | Print | Product List | Glossary Off
Versions: 1 2 3 4 5 6 7 8 9 10 11 12 13 14 15 16 17 18 19 20 21 22 23 24 25 26 27 28 29 30 31 32 33 34 35 36 37 38 39 40 41 42 43 44 45 46 47 48 49 50

000
ASUS43 KMPX 261310
RWRMN
WEATHER ROUNDUP FOR MINNESOTA
NATIONAL WEATHER SERVICE TWIN CITIES/CHANHASSEN MN
800 AM CDT SAT JUL 26 2014


NOTE: "FAIR" INDICATES FEW OR NO CLOUDS BELOW 12,000 FEET WITH NO
SIGNIFICANT WEATHER AND/OR OBSTRUCTIONS TO VISIBILITY. N/A MEANS
CURRENT SKY AND/OR WEATHER CONDITIONS ARE NOT AVAILABLE.

MNZ060>063-068>070-261400-
   Twin Cities Metro

CITY           SKY/WX    TMP DP  RH WIND       PRES   REMARKS
TWIN CITIES    CLOUDY    73  70  90 N6        29.83R
ST PAUL        CLOUDY    73  69  87 N6        29.83R
CRYSTAL        CLOUDY    73  66  78 NE5       29.82R
BLAINE         MOSUNNY   72  70  94 NW3       29.84R
LAKEVILLE      CLOUDY    70  70 100 CALM      29.84R FOG
EDEN PRAIRIE   CLOUDY    72  70  93 CALM      29.82R FOG
SOUTH ST PAUL  CLOUDY    73  70  88 N3        29.83R
LAKE ELMO      FAIR      72  70  94 NW3       29.85R FOG
$$
MNZ001>005-007-008-013>017-022>024-027-028-261400-
   Northwest Minnesota

CITY           SKY/WX    TMP DP  RH WIND       PRES   REMARKS
BEMIDJI        SUNNY     62  56  80 SW5       29.80S
HALLOCK        SUNNY     63  57  82 S9        29.71F
ROSEAU         SUNNY     63  57  82 S7        29.75S
WARROAD        SUNNY     63  57  82 S5        29.76S
THIEF RVR FALL MOSUNNY   64  57  77 S7        29.77S
CROOKSTON      SUNNY     63  57  82 S6        29.77S
FOSSTON        MOSUNNY   61  55  82 S5        29.79F
DETROIT LAKES  SUNNY     66  59  77 SE3       29.80F
MOORHEAD       SUNNY     63  61  94 SW6       29.80R
PARK RAPIDS    SUNNY     62  56  80 CALM      29.81F
$$
MNZ006-009>011-018-025>026-261400-
   North Central Minnesota

CITY           SKY/WX    TMP DP  RH WIND       PRES   REMARKS
BAUDETTE       SUNNY     62  56  80 CALM      29.77S
FLAG ISLAND    SUNNY     66  54  63 CALM      29.73S
INTL FALLS     SUNNY     62  57  83 W6        29.77R
WASKISH        SUNNY     66  61  82 SW6       29.79R
BIG FORK       SUNNY     63  57  82 SW3       29.81R
LONGVILLE      SUNNY     63  63 100 SW3       29.82R
GRAND RAPIDS   SUNNY     66  57  72 W3        29.82S
CRANE LAKE     SUNNY     63  57  82 SW3       29.78S
ORR            SUNNY     64  55  72 CALM      29.77R
COOK           SUNNY     63  59  88 W7        29.80R
$$
MNZ012-019>021-037-261400-
   Northeast Minnesota

CITY           SKY/WX    TMP DP  RH WIND       PRES   REMARKS
DULUTH         SUNNY     69  60  73 W7        29.80R
ELY            SUNNY     64  61  88 W7        29.78R
HIBBING        SUNNY     67  59  75 W5        29.81R
EVELETH        SUNNY     64  59  82 W5        29.82R
DULUTH HARBOR  SUNNY     72  63  73 W15       29.78R
TWO HARBORS    SUNNY     68  59  73 W5        29.76R
SILVER BAY     SUNNY     68  63  83 W3        29.74S
GRAND MARAIS     N/A     54  53  97 SW6       29.71R
G MARAIS ARPRT PTSUNNY   66  59  77 W7        29.76R
$$
MNZ029>031-032-039>041-046>048-054>057-064-261400-
   West Central Minnesota

CITY           SKY/WX    TMP DP  RH WIND       PRES   REMARKS
FERGUS FALLS   SUNNY     63  59  88 S5        29.81R
WHEATON        SUNNY     63  63 100 S3        29.83R
MORRIS         MOSUNNY   64  64 100 CALM      29.83R
ALEXANDRIA     MOSUNNY   67  62  84 SW8       29.84R
ELBOW LAKE     FAIR      64  62  95 S5        29.82R
WADENA         SUNNY     63  59  88 CALM      29.80F
GLENWOOD       PTSUNNY   64  63  94 CALM      29.84R
APPLETON       MOSUNNY   68  64  88 CALM      29.84R
BENSON         PTSUNNY   64  64 100 CALM      29.83R
ORTONVILLE     MOSUNNY   64  63  94 S5        29.84R FOG
MADISON        MOSUNNY   70  66  88 CALM      29.86R FOG
WILLMAR        FOG       66  64  94 SE5       29.84F VSB 1/4
$$
MNZ033>034-036-042>043-049>051-058-059-261400-
   Central Minnesota

CITY           SKY/WX    TMP DP  RH WIND       PRES   REMARKS
ST CLOUD       MOSUNNY   70  62  76 CALM      29.80F
SAUK CENTRE    FAIR      64  62  94 S6        29.83R
PAYNESVILLE    PTSUNNY   63  63 100 CALM      29.84S
AITKIN         SUNNY     70  63  78 SW3       29.82R
PINE RIVER     SUNNY     64  57  77 CALM      29.86F
BRAINERD       SUNNY     63  61  93 CALM      29.83F
STAPLES        SUNNY     63  57  82 CALM      29.82F
LONG PRAIRIE   FAIR      64  59  82 CALM      29.80F
LITTLE FALLS   SUNNY     61  59  94 CALM      29.80F
LITCHFIELD     PTSUNNY   68  68 100 CALM      29.85S
BUFFALO        PTSUNNY   70  64  80 E3        29.83F
MAPLE LAKE     PTSUNNY   71  65  83 CALM      29.83S
$$
MNZ037-044-045-052-053-261400-
   East Central Minnesota

CITY           SKY/WX    TMP DP  RH WIND       PRES   REMARKS
PRINCETON      MOSUNNY   68  66  94 NE3       29.83S
MORA           MOSUNNY   64  63  94 CALM      29.85R
CAMBRIDGE      MOSUNNY   72  61  68 CALM      29.82R
RUSH CITY      MOSUNNY   68  67  94 CALM      29.83R
MOOSE LAKE     SUNNY     68  61  77 W5        29.81S
HINCKLEY       FAIR      68  64  88 NW3       29.83R
CLOQUET        SUNNY     68  59  73 W8        29.81R
MCGREGOR       SUNNY     64  61  88 CALM      29.84R
$$
MNZ071>073-080-081-089-090-097-098-261400-
   Southwest Minnesota

CITY           SKY/WX    TMP DP  RH WIND       PRES   REMARKS
MONTEVIDEO     FOG       66  66 100 CALM      29.85R VSB<1/4
GRANITE FALLS  CLOUDY    67  67 100 CALM      29.84R FOG
CANBY          LGT RAIN  68  66  95 NE7       29.85R
MARSHALL       PTSUNNY   70  66  88 SW10      29.84R
REDWOOD FALLS  FOG       68  68 100 E10       29.76F VSB 1/4
OLIVIA         FOG       70  68  94 E6        29.79F VSB 1/4
PIPESTONE      CLOUDY    70  66  88 CALM      29.88R
WINDOM         CLOUDY    72  70  94 E3        29.83F FOG
WORTHINGTON    PTSUNNY   72  68  88 S12       29.89F
JACKSON        CLOUDY    70  68  94 SE7       29.86F FOG
TRACY          CLOUDY    70  68  94 S12       29.82R FOG
SLAYTON        PTSUNNY   70  68  96 CALM      29.87S FOG
$$
MNZ065>067-074>077-082>085-091>093-261400-
   South Central Minnesota

CITY           SKY/WX    TMP DP  RH WIND       PRES   REMARKS
MANKATO        CLOUDY    70  66  88 SW3       29.87R
NEW ULM        LGT RAIN  68  68 100 SW5       29.84F
ST JAMES       CLOUDY    72  68  88 N6        29.88R FOG
FAIRMONT       PTSUNNY   70  61  73 N5        29.85S
GLENCOE        CLOUDY    70  67  90 CALM      29.83S FOG
FARIBAULT      CLOUDY    73  66  78 CALM      29.86R HAZE
OWATONNA       CLOUDY    72  70  94 SW3       29.88R FOG
WASECA         DRIZZLE   72  68  88 CALM      29.89R
ALBERT LEA     PTSUNNY   72  70  94 W5        29.88R FOG
$$
MNZ078>079-086>088-094>096-261400-
   Southeast Minnesota

CITY           SKY/WX    TMP DP  RH WIND       PRES   REMARKS
ROCHESTER      FOG       70  68  93 W6        29.87R VSB 1/2
RED WING       CLOUDY    73  70  88 CALM      29.83R
STANTON        CLOUDY    71  68  91 SW3       29.84R FOG
DODGE CENTER   CLOUDY    72  70  94 W8        29.88R FOG
WINONA         CLOUDY    70  64  83 CALM      29.84S
AUSTIN         FOG       70  70 100 W6        29.89R VSB 3/4
PRESTON        FOG       66  66 100 CALM      29.85F VSB 1/4
$$
ABBREVIATIONS USED IN REMARKS
   TC - TEMPERATURES IN CELSIUS
  WCI - WIND CHILL INDEX
   HX - HEAT INDEX
  VSB - VISIBILITY
$$


USA.gov is the U.S. government's official web portal to all federal, state and local government web resources and services.